Regional Weather Roundup
Issued by NWS

Home | Current Version | Previous Version | Text Only | Print | Product List | Glossary Off
Versions: 1 2 3 4 5 6 7 8 9 10 11 12 13 14 15 16 17 18 19 20 21 22 23 24 25 26 27 28 29 30 31 32 33 34 35 36 37 38 39 40 41 42 43 44 45 46 47 48 49 50

000
ASUS43 KMPX 260801
RWRMN
WEATHER ROUNDUP FOR MINNESOTA
NATIONAL WEATHER SERVICE TWIN CITIES/CHANHASSEN MN
300 AM CDT TUE JUL 26 2016


NOTE: "FAIR" INDICATES FEW OR NO CLOUDS BELOW 12,000 FEET WITH NO
SIGNIFICANT WEATHER AND/OR OBSTRUCTIONS TO VISIBILITY. N/A MEANS
CURRENT SKY AND/OR WEATHER CONDITIONS ARE NOT AVAILABLE.

MNZ060>063-068>070-260900-
   Twin Cities Metro

CITY           SKY/WX    TMP DP  RH WIND       PRES   REMARKS
TWIN CITIES    CLEAR     74  64  71 SW3       30.04S
ST PAUL        FAIR      71  67  87 CALM      30.04S
CRYSTAL        MOCLDY    70  63  78 S5        30.02S
BLAINE         FAIR      72  64  78 S6        30.03S
LAKEVILLE      CLEAR     66  66 100 CALM      30.05F
EDEN PRAIRIE   CLEAR     71  66  84 SW6       30.04S
LAKEVILLE      CLEAR     66  66 100 CALM      30.05F
SOUTH ST PAUL  CLEAR     71  65  80 CALM      30.04S
LAKE ELMO      FAIR      68  64  88 S3        30.05S
$$
MNZ001>005-007-008-013>017-022>024-027-028-260900-
   Northwest Minnesota

CITY           SKY/WX    TMP DP  RH WIND       PRES   REMARKS
HALLOCK        CLEAR     64  63  94 CALM      29.93S
ROSEAU         CLEAR     63  57  82 CALM      29.96S
WARROAD        CLEAR     63  57  82 CALM      29.96S
THIEF RVR FALL CLEAR     69  65  86 E7        29.95S
CROOKSTON      CLEAR     72  66  83 E7        29.93S
FOSSTON        CLEAR     64  61  88 N3        29.96R
DETROIT LAKES  CLEAR     73  63  68 S8        29.98S
MOORHEAD       CLEAR     68  64  88 S8        29.94S
PARK RAPIDS    CLOUDY    72  64  76 S5        29.98F
MAHNOMEN       FAIR      68  64  86 S5        29.95S
$$
MNZ006-009>011-018-025>026-260900-
   North Central Minnesota

CITY           SKY/WX    TMP DP  RH WIND       PRES   REMARKS
BAUDETTE       CLOUDY    61  61 100 CALM      29.96F FOG
FLAG ISLAND    CLEAR     70  63  78 CALM      29.94F
INTL FALLS     CLOUDY    62  60  93 CALM      29.96F
WASKISH        MOCLDY    66  64  94 CALM      29.96S
BIG FORK       MOCLDY    64  63  94 CALM      29.97F
LONGVILLE      MOCLDY    72  64  78 SW5       29.98S
GRAND RAPIDS   MOCLDY    68  65  90 S7        30.00F
ORR            CLOUDY    63  59  88 CALM      29.96S
COOK           PTCLDY    63  61  94 CALM      29.98F
WALKER         FAIR      71  64  77 SW7       29.96F
$$
MNZ012-019>021-037-260900-
   Northeast Minnesota

CITY           SKY/WX    TMP DP  RH WIND       PRES   REMARKS
DULUTH         CLEAR     68  64  87 W8        30.01S
ELY            CLOUDY    63  59  88 CALM      30.00S
HIBBING        MOCLDY    59  59 100 CALM      29.99F
EVELETH        PTCLDY    60  59  97 CALM      30.00F
DULUTH HARBOR  CLEAR     70  66  88 SW9       29.99R
TWO HARBORS    CLEAR     73  66  78 W3        29.97S
SILVER BAY     CLEAR     64  61  88 CALM      29.97F
GRAND MARAIS     N/A     64  60  87 W3        29.95S
G MARAIS ARPRT CLEAR     61  55  82 W3        30.01S
$$
MNZ029>031-032-039>041-046>048-054>057-064-260900-
   West Central Minnesota

CITY           SKY/WX    TMP DP  RH WIND       PRES   REMARKS
FERGUS FALLS   PTCLDY    70  63  78 MISG      29.98S
WHEATON        PTCLDY    72  64  78 S7        29.97S
MORRIS         CLEAR     68  64  88 S9        29.98S
ALEXANDRIA     PTCLDY    73  63  70 SW14      30.02F
ELBOW LAKE     FAIR      68  64  86 S9        29.99R
WADENA         PTCLDY    68  63  83 S7        29.98F
GLENWOOD       CLEAR     68  64  88 SW8       30.03S
APPLETON       FAIR      73  63  68 S8        29.99F
BENSON         FAIR      66  63  88 SW9       30.01S
ORTONVILLE     FAIR      68  63  83 CALM      29.99S
MADISON        CLEAR     66  63  88 S6        30.01S
WILLMAR        FAIR      70  64  83 CALM      30.04F
$$
MNZ033>034-036-042>043-049>051-058-059-260900-
   Central Minnesota

CITY           SKY/WX    TMP DP  RH WIND       PRES   REMARKS
ST CLOUD       PTCLDY    67  66  97 S5        30.02F
SAUK CENTRE    PTSUNNY   67  64  90 S6        30.02F
PAYNESVILLE    CLEAR     69  63  80 S8        30.04S
AITKIN         MOCLDY    73  63  68 S5        29.99F
PINE RIVER     PTCLDY    66  64  94 CALM      30.02F
BRAINERD       CLOUDY    71  66  84 S8        30.00F
STAPLES        PTCLDY    66  63  88 S5        29.99F
LONG PRAIRIE   FAIR      70  63  78 S7        30.02F
LITTLE FALLS   MOCLDY    68  63  83 CALM      30.02S
LITCHFIELD     FAIR      72  66  83 S3        30.04S
BUFFALO        FAIR      70  64  81 S3        30.04S
MAPLE LAKE     FAIR      71  67  87 S3        30.04S
HUTCHINSON     CLEAR     69  66  90 CALM      30.05F
$$
MNZ037-044-045-052-053-260900-
   East Central Minnesota

CITY           SKY/WX    TMP DP  RH WIND       PRES   REMARKS
PRINCETON      PTCLDY    70  66  88 CALM      30.03S
MORA           PTCLDY    64  64 100 CALM      30.04S
CAMBRIDGE      CLEAR     72  63  73 S5        30.01S
RUSH CITY      PTCLDY    66  63  90 CALM      30.03S
MOOSE LAKE     CLEAR     63  61  94 CALM      30.00S FOG
HINCKLEY       PTSUNNY   63  63 100 CALM      30.02S
CLOQUET        CLEAR     70  63  78 SW5       30.01F
MCGREGOR       MOCLDY    68  64  88 S3        30.01F
$$
MNZ071>073-080-081-089-090-097-098-260900-
   Southwest Minnesota

CITY           SKY/WX    TMP DP  RH WIND       PRES   REMARKS
MONTEVIDEO     CLEAR     68  63  83 SW6       30.04S
GRANITE FALLS  PTCLDY    68  66  94 S8        30.04F
CANBY          CLEAR     75  63  66 SW10G21   30.02S
MARSHALL       PTCLDY    70  64  81 S7        30.04F
REDWOOD FALLS  PTCLDY    69  63  81 S8        30.04F
OLIVIA         CLEAR     70  64  83 S6        30.04S
PIPESTONE      CLEAR     66  63  88 S7        30.09S
WINDOM         CLOUDY    70  63  78 S3        30.09S
WORTHINGTON    CLEAR     70  63  78 SW8       30.10S
JACKSON        CLEAR     68  63  83 S6        30.10S
TRACY          CLOUDY    71  65  83 SW13      30.06F
SLAYTON        CLOUDY    66  63  89 SW7       30.10S
$$
MNZ065>067-074>077-082>085-091>093-260900-
   South Central Minnesota

CITY           SKY/WX    TMP DP  RH WIND       PRES   REMARKS
MANKATO        CLEAR     70  63  78 S6        30.07S
NEW ULM        CLEAR     70  66  88 S6        30.06S
ST JAMES       PTCLDY    64  61  88 CALM      30.08S
FAIRMONT       CLEAR     68  63  83 S7        30.07F
GLENCOE        CLEAR     70  67  92 S3        30.04F
FARIBAULT      CLEAR     64  64 100 CALM      30.07S
OWATONNA       CLEAR     64  63  94 CALM      30.08S
WASECA         CLEAR     63  61  94 CALM      30.09S
ALBERT LEA     CLEAR     66  64  94 CALM      30.09S
$$
MNZ078>079-086>088-094>096-260900-
   Southeast Minnesota

CITY           SKY/WX    TMP DP  RH WIND       PRES   REMARKS
ROCHESTER      CLEAR     64  63  96 S5        30.09S
RED WING       CLEAR     64  64 100 CALM      30.05R FOG
STANTON        CLEAR     66  63  88 CALM      30.05S
DODGE CENTER   PTCLDY    64  61  88 SW3       30.09S
WINONA         PTCLDY    66  64  94 CALM      30.06S
AUSTIN         CLEAR     63  61  94 CALM      30.09R
PRESTON        CLEAR     67  61  83 W5        30.09S
$$
ABBREVIATIONS USED IN REMARKS
   TC - TEMPERATURES IN CELSIUS
  WCI - WIND CHILL INDEX
   HX - HEAT INDEX
  VSB - VISIBILITY
$$




USA.gov is the U.S. government's official web portal to all federal, state and local government web resources and services.